Location: Newark
(7.0858°N, 171.3717°E)
Time: 04:59:39
(UTC+00:00)

Courier 1B Rocket - Pass Details

Date: 03 December 2020
Orbit: 920 x 1202 km, 28.2° (Epoch: 20 January)

Event Time Altitude Azimuth Distance (km) Brightness Sun altitude
Rises 17:47:32 0° 303° (WNW) 4,054 - -11.2°
Exits shadow 17:50:56 - 320° (NW) 3,309 7.2 -10.4°
Reaches altitude 10° 17:52:05 10° 327° (NNW) 3,116 7.2 -10.2°
Maximum altitude 17:55:58 14° 357° (N) 2,810 7.2 -9.3°
Drops below altitude 10° 17:59:50 10° 27° (NNE) 3,121 7.7 -8.4°
Sets 18:04:25 0° 51° (NE) 4,065 8.7 -7.3°
